SCP
0 0 0 0 0 0 0 0 0 0 0 0 0 0 0 0 0 0 1 1 1 1 1 1 1 1 1 1 1 1 1 0 0 0 0 0 0 0 0 0 0 0 0
0 0 0 0 0 0 0 0 0 0 0 0 0 0 0 0 0 0 0 0 1 1 1 1 1 1 1 1 1 1 1 0 0 0 0 0 0 0 0 0 0 0 0
0 0 0 0 0 0 0 0 0 0 0 0 0 0 0 0 0 0 0 0 0 0 1 1 1 1 1 1 1 1 1 1 0 0 0 0 0 0 0 0 0 0 0
0 0 0 0 0 0 0 0 0 0 0 0 1 0 0 0 0 0 0 0 0 0 0 1 1 1 1 1 1 1 1 1 0 0 0 0 0 0 0 0 0 0 0
0 0 0 0 0 0 0 0 0 0 0 0 1 0 0 0 0 0 0 0 0 0 0 0 0 1 1 1 1 1 1 1 0 0 0 0 0 0 0 0 0 0 0
0 0 0 0 0 0 0 0 0 0 0 0 0 0 0 0 0 0 0 0 0 0 0 0 0 0 0 0 1 1 1 1 0 0 0 0 0 0 0 0 0 0 0
0 0 0 0 0 0 0 0 0 0 0 0 0 0 0 0 0 0 0 0 0 0 0 0 0 0 0 0 0 0 0 0 0 0 0 0 0 0 0 0 0 0 0
0 0 0 0 0 0 0 0 0 0 0 0 0 0 0 0 0 0 0 0 0 0 0 0 0 0 0 0 0 0 0 0 0 0 0 0 0 0 0 0 0 0 0
0 0 0 0 0 0 0 0 0 0 0 0 0 0 0 0 0 0 0 0 0 0 0 0 0 0 0 0 0 0 0 0 0 0 0 0 0 0 0 0 0 0 0
0 0 0 0 0 0 0 0 0 0 0 0 0 0 0 0 0 0 0 0 0 0 0 0 0 0 0 0 0 0 0 0 0 0 0 0 0 0 0 0 0 0 0
0 0 0 0 0 0 0 0 0 0 0 0 0 0 0 0 0 0 0 0 0 0 0 0 0 0 0 0 0 0 0 0 0 0 0 0 0 0 0 0 0 0 0
0 0 0 0 0 0 0 0 0 0 0 0 0 0 0 0 0 0 0 0 0 0 0 0 0 0 0 0 0 0 0 0 0 0 0 0 0 0 0 0 0 0 0
0 0 0 0 0 0 0 0 0 0 0 0 0 0 0 0 0 0 0 0 0 0 0 0 0 0 0 0 0 0 0 0 0 0 0 0 0 0 0 0 0 0 0
0 0 0 0 0 0 0 0 0 0 0 0 0 0 0 0 0 0 0 0 0 0 0 0 0 0 0 0 0 0 0 0 0 0 0 0 0 0 0 0 0 0 0
0 0 0 0 0 0 0 0 0 0 0 0 0 0 0 0 0 0 0 0 0 0 0 0 0 0 0 0 0 0 0 0 0 0 0 0 0 0 0 0 0 0 0
0 0 0 0 0 0 0 0 0 0 0 0 0 0 0 0 0 0 0 0 0 0 0 0 0 0 0 0 0 0 0 0 0 0 0 0 0 0 0 0 0 0 0
0 0 0 0 0 0 0 0 0 0 0 0 0 0 0 0 0 0 0 0 0 0 0 0 0 0 0 0 0 0 0 0 0 0 0 0 0 0 0 0 0 0 0
0 0 0 0 0 0 0 0 0 0 0 0 0 0 0 0 0 0 0 0 0 0 0 0 0 0 0 0 0 0 0 0 0 0 0 0 0 0 0 0 0 0 0
0 0 0 0 0 0 0 0 0 0 0 0 0 0 0 0 0 0 0 0 0 0 0 0 0 0 0 0 0 0 0 0 0 0 0 0 0 0 0 0 0 0 0
0 0 0 0 0 0 0 0 0 0 0 0 0 0 0 0 0 0 0 0 0 0 0 0 0 0 0 0 0 0 0 0 0 0 0 0 0 0 0 0 0 0 0
0 0 0 0 0 0 0 0 0 0 0 0 0 0 0 0 0 0 0 0 0 0 0 0 0 0 0 0 0 0 0 0 0 0 0 0 0 0 0 0 0 0 0
0 0 0 0 0 0 0 0 0 0 0 0 0 0 0 0 0 0 0 0 0 0 0 0 0 0 0 0 0 0 0 0 0 0 0 0 0 0 0 0 0 0 0
0 0 0 0 0 0 0 0 0 0 0 0 0 0 0 0 0 0 0 0 0 0 0 0 0 0 0 0 0 0 0 0 0 0 0 0 0 0 0 0 0 0 0
0 0 0 0 0 0 0 0 0 0 0 0 0 0 0 0 0 0 0 0 0 0 0 0 0 0 0 0 0 0 0 0 0 0 0 0 0 0 0 0 0 0 0
0 0 0 0 0 0 0 0 0 0 0 0 0 0 0 0 0 0 0 0 0 0 0 0 0 0 0 0 0 0 0 0 0 0 0 0 0 0 0 0 0 0 0
0 0 0 0 0 0 0 0 0 0 0 0 0 0 0 0 0 0 0 0 0 0 0 0 0 0 0 0 0 0 0 0 0 0 0 0 0 0 0 0 0 0 0
Wind_Speed
3 3 3 4 4 5 5 6 7 7 7 7 7 7 8 8 9 9 11 11 13 13 12 13 15 13 11 10 10 10 11 11 14 7 4 5 7 7 6 5 6 6 7
3 3 4 4 4 5 6 7 7 7 7 7 7 8 8 8 8 9 11 11 12 13 13 13 14 11 14 11 10 12 11 11 11 11 5 5 7 8 7 7 5 5 5
3 3 4 4 5 5 7 7 7 7 8 7 7 8 9 9 9 10 11 11 12 12 12 13 13 12 13 11 11 11 10 9 9 9 7 5 4 4 5 4 4 4 4
3 4 4 5 5 6 7 7 7 7 7 8 8 9 9 9 9 9 10 11 12 12 12 12 12 12 13 12 10 11 9 9 9 8 6 4 4 4 5 5 4 3 3
3 4 5 6 6 6 7 7 7 7 8 8 8 9 9 8 8 9 9 10 11 12 12 11 12 12 14 12 9 9 9 8 7 7 6 4 5 5 6 6 6 5 3
3 4 5 6 6 6 7 8 8 8 8 8 8 9 9 8 11 13 11 10 10 12 12 11 10 10 11 13 14 13 12 11 9 8 7 7 8 7 6 7 7 6 4
3 5 5 6 7 7 8 8 8 8 8 8 8 8 10 11 14 14 13 11 11 11 11 10 8 7 9 9 9 10 10 11 12 10 9 9 9 9 9 9 8 7 5
3 4 5 6 7 8 8 8 8 8 8 8 9 9 10 11 14 14 13 11 11 11 10 10 9 8 7 7 6 6 6 6 8 8 8 7 7 8 9 9 9 6 4
4 5 5 6 8 8 8 9 8 8 9 8 8 9 10 11 13 14 13 8 8 9 8 7 8 8 8 8 6 5 4 3 2 5 5 5 7 9 9 7 7 7 4
4 5 6 6 7 8 9 9 8 8 9 9 9 8 9 10 13 13 12 6 7 7 6 5 6 7 7 7 6 5 5 3 2 3 3 4 4 6 8 6 7 7 5
5 6 7 7 7 8 8 8 8 8 9 9 10 9 8 9 12 13 11 6 6 6 5 5 4 5 6 6 6 5 6 4 3 4 3 3 4 3 3 2 2 4 5
6 7 8 8 7 7 8 8 8 8 9 9 8 9 7 6 8 10 11 10 8 6 6 5 4 5 6 6 5 4 6 5 3 4 3 3 3 3 3 4 5 6 5
6 8 8 8 7 7 7 8 7 7 7 7 7 8 8 5 6 9 9 9 9 5 4 5 4 4 3 3 4 5 4 3 4 4 4 3 3 4 5 5 6 8 9
7 8 8 8 8 7 6 6 6 6 7 7 7 8 8 7 5 4 4 4 5 4 3 2 1 1 1 2 3 3 2 2 3 4 4 4 4 4 4 4 5 5 5
7 8 7 7 8 8 7 6 8 7 8 9 8 7 8 8 7 8 5 4 3 3 1 1 0 0 1 1 1 2 2 3 3 3 4 4 4 4 4 3 4 4 4
7 7 6 6 7 7 8 8 10 11 13 14 14 12 9 10 12 10 8 7 5 3 1 1 1 1 2 2 2 2 2 2 3 4 4 4 4 5 4 4 4 4 5
7 8 6 7 7 7 7 8 9 9 10 12 13 13 13 12 11 9 7 6 4 3 2 2 2 2 2 2 2 2 2 2 3 4 4 4 4 5 5 5 5 5 5
7 8 8 7 7 7 7 8 7 9 9 7 8 10 11 10 9 8 6 4 3 2 2 2 2 2 2 2 3 3 3 3 3 3 4 4 4 5 5 5 5 6 6
7 6 6 7 7 7 8 8 7 8 8 8 7 7 7 7 7 6 4 3 3 3 2 2 2 2 2 2 2 3 3 4 4 4 4 4 4 5 5 5 5 7 6
6 9 8 7 7 7 7 7 7 7 7 7 7 6 5 3 3 3 2 2 2 2 2 2 1 2 2 2 3 3 3 4 4 4 4 4 4 4 5 6 6 6 5
6 7 8 7 6 6 6 6 6 6 6 6 6 6 6 4 3 3 3 2 2 2 2 2 2 2 2 2 3 4 4 4 4 4 4 4 4 4 4 5 5 5 5
6 6 6 6 6 6 6 6 5 6 6 7 6 5 5 3 3 3 2 2 2 1 1 2 2 2 2 3 4 4 4 4 4 4 4 4 5 5 5 5 5 5 6
5 6 6 6 5 6 6 5 5 5 5 5 5 4 3 2 2 2 2 2 1 1 0 1 2 2 2 2 2 4 5 5 5 6 6 5 5 5 5 6 7 6 6
5 5 5 5 5 4 5 5 5 5 5 4 4 3 2 2 2 2 2 1 1 1 0 1 2 3 3 2 2 2 3 4 4 5 7 7 6 6 5 6 6 6 6
4 5 5 4 4 4 4 4 4 4 4 3 2 2 1 1 2 2 2 1 1 1 1 1 1 3 4 4 3 3 5 6 6 5 6 6 7 7 6 7 6 6 6
4 4 4 4 4 4 4 4 4 3 3 2 2 1 1 1 1 1 1 0 0 1 1 1 2 3 4 4 5 6 6 7 7 7 6 6 7 6 7 6 7 6 7
Wind_Direction
312 304 299 295 293 289 281 278 275 275 273 270 267 265 262 259 253 249 250 250 248 249 245 243 243 240 240 237 233 232 233 233 248 247 207 192 189 192 188 192 194 197 198
311 308 302 300 302 299 294 289 286 282 279 274 274 271 268 264 259 255 256 254 251 252 250 248 248 244 241 239 236 235 235 230 236 245 220 195 197 190 183 184 187 187 190
320 315 314 313 310 303 298 295 293 288 285 281 276 273 272 270 266 260 258 258 255 255 254 252 251 247 245 241 237 237 236 232 228 231 227 200 190 175 167 170 171 176 176
326 318 313 310 309 305 303 302 299 295 292 288 282 277 275 272 268 265 262 262 261 259 257 254 252 247 246 243 241 239 236 232 226 223 217 191 181 164 160 165 173 181 184
325 315 308 308 309 309 309 307 304 299 293 289 286 283 280 275 269 268 267 265 265 265 261 256 253 248 243 240 239 237 232 232 224 214 208 192 186 172 182 174 182 171 176
310 303 305 310 313 312 310 308 305 302 298 295 290 289 287 280 282 280 274 271 267 265 264 262 257 248 243 238 235 232 227 228 224 216 211 206 202 193 179 174 170 168 194
303 305 310 313 312 310 308 307 303 301 300 296 292 290 288 287 289 287 279 273 269 265 263 263 263 257 246 240 234 231 232 229 223 217 212 210 200 192 179 179 182 181 186
301 305 311 314 309 307 306 303 302 300 297 293 292 291 289 289 292 289 286 273 268 264 260 258 257 257 243 230 225 227 234 234 223 222 221 213 199 185 182 180 169 149 107
299 305 310 308 304 304 302 301 301 300 296 292 290 289 287 289 292 291 289 277 271 270 266 257 250 251 241 217 211 215 223 235 199 184 182 172 164 160 156 143 147 147 154
299 302 302 298 295 295 295 296 295 292 290 292 289 285 284 287 293 293 289 276 275 277 276 264 247 242 233 213 211 203 208 214 149 119 114 107 123 137 149 166 166 162 149
305 303 299 296 293 291 292 291 293 293 292 290 289 287 283 282 289 292 286 274 270 274 274 270 257 238 231 217 215 212 197 172 151 141 125 111 102 103 107 102 117 155 154
307 302 299 297 296 295 293 294 294 293 292 290 291 292 286 281 280 287 286 278 275 266 267 267 258 234 220 212 210 187 161 149 143 136 132 133 124 113 100 94 88 80 77
305 299 297 297 293 290 289 292 295 290 287 289 289 292 295 292 286 287 286 283 277 266 264 259 253 235 216 201 163 150 145 147 145 145 152 150 129 125 119 106 92 86 74
297 295 295 296 296 294 288 283 283 285 285 285 285 287 291 292 288 287 286 286 281 271 268 268 223 175 147 106 115 119 125 144 152 153 145 132 125 123 124 125 123 118 97
294 293 296 294 294 294 287 275 277 269 264 274 277 276 283 287 287 286 285 281 273 261 260 325 353 106 105 105 102 105 113 119 123 127 135 135 133 130 127 123 122 116 116
294 296 295 295 294 291 292 292 277 272 278 274 271 270 272 273 287 288 278 271 260 233 212 236 225 210 195 182 163 139 130 140 141 140 142 144 146 144 137 127 119 123 126
286 290 290 289 289 290 290 291 297 296 281 278 278 276 271 276 281 281 275 270 256 220 223 225 218 212 198 178 166 161 162 150 140 142 144 146 144 144 143 140 135 130 126
284 282 281 281 282 283 283 282 284 290 296 292 287 284 282 280 281 276 270 269 267 244 239 224 214 202 191 179 166 155 144 136 135 137 141 143 146 147 144 143 144 141 136
282 279 278 279 279 279 280 280 279 279 281 287 295 296 293 291 291 286 272 252 243 242 241 233 215 191 177 166 154 148 147 146 143 140 141 142 145 145 141 140 139 137 132
279 278 279 279 280 280 280 279 280 280 280 282 285 290 300 301 295 299 282 260 245 237 225 217 208 181 169 161 152 146 143 143 144 144 145 142 141 139 140 142 143 142 138
283 285 284 282 278 277 278 277 277 277 279 281 284 288 287 283 279 281 278 269 256 244 224 206 191 177 167 158 152 149 148 148 148 145 143 140 138 135 133 134 135 132 131
281 283 282 281 281 281 281 280 278 277 279 283 289 297 296 282 271 272 275 272 268 257 231 198 182 175 171 166 161 156 155 153 152 148 143 140 137 134 133 133 134 135 135
280 283 285 283 282 285 286 281 278 277 279 282 287 294 294 284 282 281 282 285 290 295 243 175 163 153 142 145 159 164 163 165 162 156 150 146 142 141 142 144 145 143 143
283 282 284 288 290 289 289 287 283 280 279 282 287 293 304 307 304 307 308 314 324 330 316 159 155 150 147 139 135 136 140 143 146 150 150 148 145 144 143 144 145 146 146
288 287 286 288 291 292 294 293 293 291 288 287 291 299 310 320 324 325 328 333 350 42 60 112 138 137 140 140 137 134 135 133 133 134 138 139 140 142 143 143 144 145 146
292 290 290 290 291 293 293 295 297 299 298 297 297 301 306 308 312 316 321 332 57 72 70 75 110 123 127 127 133 135 136 134 133 133 134 135 137 139 139 138 143 145 145